When you browse on this site, cookies collect data to enhance your experience and personalize the content and advertising you see.
Visit our Privacy Policy to learn more. By continuing to use the site, you agree to this use of cookies and data.
  • In Slovakia
  • List of Countries
  • For 7 days
  • Water Temperature
  • Weather Map
  • Weather Widgets
  • user-avatar
    Login

    Hourly Weather Brisbane

    Today, 29 January, Wednesday

    Time Temperature Precipitation Wind Pressure Humidity
    00:00 +25°C° 0 mm 1 mps 759 mmHg 87%
    01:00 +25°C° 0 mm 1 mps 758 mmHg 88%
    02:00 +25°C° 0 mm 1 mps 758 mmHg 89%
    03:00 +25°C° 0 mm 1 mps 758 mmHg 89%
    04:00 +25°C° 0 mm 1 mps 758 mmHg 89%
    05:00 +26°C° 0 mm 1 mps 758 mmHg 85%
    06:00 +26°C° 0 mm 1 mps 759 mmHg 81%
    07:00 +27°C° 0 mm 1 mps 759 mmHg 78%
    08:00 +30°C° 0 mm 1 mps 759 mmHg 68%
    09:00 +32°C° 0 mm 1 mps 759 mmHg 58%
    10:00 +35°C° 0 mm 2 mps 759 mmHg 48%
    11:00 +36°C° 0 mm 2 mps 758 mmHg 45%
    12:00 +37°C° 0 mm 2 mps 758 mmHg 43%
    13:00 +38°C° 0 mm 3 mps 758 mmHg 41%
    14:00 +37°C° 0 mm 3 mps 757 mmHg 46%
    15:00 +36°C° 0 mm 4 mps 757 mmHg 51%
    16:00 +34°C° 0 mm 4 mps 757 mmHg 55%
    17:00 +33°C° 0 mm 3 mps 757 mmHg 62%
    18:00 +30°C° 0 mm 3 mps 758 mmHg 68%
    19:00 +28°C° 0 mm 3 mps 758 mmHg 75%
    20:00 +28°C° 0 mm 3 mps 759 mmHg 77%
    21:00 +27°C° 0 mm 2 mps 759 mmHg 79%
    22:00 +27°C° 0 mm 2 mps 759 mmHg 82%
    23:00 +26°C° 0 mm 2 mps 759 mmHg 82%

    Tomorrow, 30 January, Thursday

    Time Temperature Precipitation Wind Pressure Humidity
    00:00 +26°C° 0 mm 1 mps 759 mmHg 83%
    01:00 +26°C° 0 mm 1 mps 759 mmHg 83%
    02:00 +26°C° 0 mm 1 mps 759 mmHg 83%
    03:00 +26°C° 0 mm 1 mps 759 mmHg 84%
    04:00 +25°C° 0 mm 1 mps 759 mmHg 84%
    05:00 +26°C° 0 mm 1 mps 759 mmHg 80%
    06:00 +27°C° 0 mm 1 mps 760 mmHg 76%
    07:00 +28°C° 0 mm 1 mps 760 mmHg 72%
    08:00 +29°C° 0 mm 1 mps 760 mmHg 67%
    09:00 +30°C° 0 mm 2 mps 760 mmHg 63%
    10:00 +31°C° 0 mm 2 mps 760 mmHg 58%
    11:00 +33°C° 0 mm 3 mps 760 mmHg 54%
    12:00 +34°C° 0 mm 3 mps 759 mmHg 50%
    13:00 +35°C° 0 mm 3 mps 759 mmHg 45%
    14:00 +35°C° 0 mm 3 mps 759 mmHg 47%
    15:00 +34°C° 0 mm 4 mps 758 mmHg 49%
    16:00 +33°C° 0 mm 4 mps 758 mmHg 51%
    17:00 +32°C° 0 mm 4 mps 759 mmHg 58%
    18:00 +29°C° 0 mm 3 mps 759 mmHg 64%
    19:00 +27°C° 0 mm 3 mps 759 mmHg 71%
    20:00 +27°C° 0 mm 3 mps 760 mmHg 74%
    21:00 +26°C° 0 mm 2 mps 760 mmHg 77%
    22:00 +26°C° 0 mm 2 mps 761 mmHg 80%
    23:00 +26°C° 0 mm 2 mps 761 mmHg 81%

    Day after tomorrow, 31 January, Friday

    Time Temperature Precipitation Wind Pressure Humidity
    00:00 +25°C° 0 mm 1 mps 760 mmHg 81%
    01:00 +25°C° 0 mm 1 mps 760 mmHg 81%
    02:00 +25°C° 0 mm 1 mps 760 mmHg 81%
    03:00 +25°C° 0 mm 1 mps 760 mmHg 81%
    04:00 +25°C° 0 mm 1 mps 760 mmHg 80%
    05:00 +25°C° 0 mm 1 mps 760 mmHg 77%
    06:00 +26°C° 0 mm 1 mps 761 mmHg 73%
    07:00 +27°C° 0 mm 1 mps 761 mmHg 70%
    08:00 +29°C° 0 mm 2 mps 761 mmHg 62%
    09:00 +30°C° 0 mm 2 mps 761 mmHg 55%
    10:00 +33°C° 0 mm 3 mps 761 mmHg 47%
    11:00 +34°C° 0 mm 3 mps 761 mmHg 48%
    12:00 +34°C° 0 mm 4 mps 761 mmHg 48%
    13:00 +34°C° 0 mm 4 mps 760 mmHg 48%
    14:00 +34°C° 0 mm 4 mps 760 mmHg 51%
    15:00 +33°C° 0 mm 4 mps 760 mmHg 53%
    16:00 +32°C° 0 mm 4 mps 759 mmHg 56%
    17:00 +30°C° 0 mm 4 mps 760 mmHg 62%
    18:00 +28°C° 0 mm 4 mps 760 mmHg 68%
    19:00 +27°C° 0 mm 3 mps 760 mmHg 74%
    20:00 +26°C° 0 mm 3 mps 761 mmHg 76%
    21:00 +26°C° 0 mm 2 mps 761 mmHg 79%
    22:00 +25°C° 0 mm 2 mps 762 mmHg 81%
    23:00 +25°C° 0 mm 2 mps 761 mmHg 81%

    1 February, Saturday

    Time Temperature Precipitation Wind Pressure Humidity
    00:00 +25°C° 0 mm 2 mps 761 mmHg 81%
    01:00 +25°C° 0 mm 1 mps 761 mmHg 81%
    02:00 +25°C° 0.1 mm 1 mps 761 mmHg 83%
    03:00 +25°C° 0.1 mm 1 mps 761 mmHg 85%
    04:00 +24°C° 0.1 mm 1 mps 761 mmHg 87%
    05:00 +25°C° 0.2 mm 1 mps 761 mmHg 85%
    06:00 +26°C° 0.2 mm 1 mps 761 mmHg 82%
    07:00 +26°C° 0.2 mm 1 mps 761 mmHg 80%
    08:00 +28°C° 0.2 mm 2 mps 762 mmHg 74%
    09:00 +29°C° 0.2 mm 2 mps 762 mmHg 69%
    10:00 +30°C° 0.2 mm 3 mps 762 mmHg 63%
    11:00 +31°C° 0 mm 3 mps 761 mmHg 59%
    12:00 +33°C° 0 mm 3 mps 760 mmHg 54%
    13:00 +34°C° 0 mm 4 mps 759 mmHg 49%
    14:00 +33°C° 0 mm 4 mps 759 mmHg 50%
    15:00 +33°C° 0 mm 4 mps 759 mmHg 51%
    16:00 +33°C° 0 mm 4 mps 758 mmHg 51%
    17:00 +30°C° 0 mm 4 mps 758 mmHg 56%
    18:00 +28°C° 0 mm 3 mps 758 mmHg 62%
    19:00 +27°C° 0 mm 3 mps 759 mmHg 67%
    20:00 +26°C° 0 mm 3 mps 759 mmHg 72%
    21:00 +25°C° 0 mm 2 mps 759 mmHg 77%
    22:00 +25°C° 0 mm 2 mps 760 mmHg 82%
    23:00 +24°C° 0 mm 2 mps 760 mmHg 84%

    2 February, Sunday

    Time Temperature Precipitation Wind Pressure Humidity
    00:00 +24°C° 0 mm 1 mps 759 mmHg 86%
    01:00 +24°C° 0 mm 1 mps 759 mmHg 87%
    02:00 +24°C° 0 mm 1 mps 759 mmHg 87%
    03:00 +23°C° 0 mm 1 mps 758 mmHg 88%
    04:00 +23°C° 0 mm 1 mps 758 mmHg 88%
    05:00 +24°C° 0 mm 1 mps 758 mmHg 85%
    06:00 +25°C° 0 mm 1 mps 759 mmHg 82%
    07:00 +25°C° 0 mm 1 mps 759 mmHg 79%
    08:00 +28°C° 0 mm 1 mps 759 mmHg 68%
    09:00 +30°C° 0 mm 1 mps 758 mmHg 58%
    10:00 +33°C° 0 mm 1 mps 758 mmHg 47%
    11:00 +35°C° 0 mm 2 mps 757 mmHg 43%
    12:00 +36°C° 0 mm 2 mps 757 mmHg 39%
    13:00 +37°C° 0 mm 3 mps 756 mmHg 35%
    14:00 +36°C° 0 mm 3 mps 755 mmHg 38%
    15:00 +35°C° 0 mm 4 mps 755 mmHg 42%
    16:00 +35°C° 0 mm 4 mps 754 mmHg 45%
    17:00 +33°C° 0 mm 4 mps 754 mmHg 54%
    18:00 +30°C° 0 mm 4 mps 754 mmHg 62%
    19:00 +28°C° 0 mm 4 mps 755 mmHg 71%
    20:00 +28°C° 0 mm 4 mps 755 mmHg 74%
    21:00 +27°C° 0 mm 4 mps 756 mmHg 77%
    22:00 +27°C° 0 mm 4 mps 756 mmHg 80%
    23:00 +26°C° 0 mm 3 mps 756 mmHg 80%

    3 February, Monday

    Time Temperature Precipitation Wind Pressure Humidity
    00:00 +26°C° 0 mm 3 mps 755 mmHg 81%
    01:00 +25°C° 0 mm 2 mps 755 mmHg 81%
    02:00 +25°C° 0 mm 2 mps 755 mmHg 82%
    03:00 +25°C° 0 mm 2 mps 755 mmHg 83%
    04:00 +24°C° 0 mm 2 mps 755 mmHg 83%
    05:00 +25°C° 0 mm 2 mps 755 mmHg 78%
    06:00 +26°C° 0 mm 2 mps 755 mmHg 74%
    07:00 +27°C° 0 mm 2 mps 756 mmHg 69%
    08:00 +29°C° 0 mm 2 mps 755 mmHg 60%
    09:00 +32°C° 0 mm 2 mps 755 mmHg 52%
    10:00 +35°C° 0 mm 3 mps 755 mmHg 44%
    11:00 +37°C° 0 mm 3 mps 755 mmHg 39%
    12:00 +38°C° 0 mm 3 mps 754 mmHg 35%
    13:00 +40°C° 0 mm 3 mps 753 mmHg 30%
    14:00 +38°C° 0 mm 4 mps 753 mmHg 35%
    15:00 +36°C° 0 mm 4 mps 752 mmHg 41%
    16:00 +35°C° 0 mm 5 mps 751 mmHg 47%
    17:00 +34°C° 0 mm 5 mps 752 mmHg 51%
    18:00 +32°C° 0 mm 4 mps 752 mmHg 56%
    19:00 +30°C° 0 mm 4 mps 753 mmHg 60%
    20:00 +29°C° 0 mm 4 mps 753 mmHg 63%
    21:00 +29°C° 0 mm 3 mps 754 mmHg 65%
    22:00 +28°C° 0 mm 3 mps 755 mmHg 67%
    23:00 +28°C° 0.2 mm 3 mps 755 mmHg 69%
    Show more